Greenville, ME

9:51 AM EDT on October 19, 2017 (GMT -0400)
Greenville

Weather History for KGNR - February, 2013

Change the Weather History Date:

Thursday, February 14, 2013

  Actual Average (KMLT) Record (KMLT)
Temperature  
Mean Temperature 26 °F -  
Max Temperature 32 °F 26 °F 48 °F (1984)
Min Temperature 19 °F 4 °F -25 °F (1911)
Degree Days  
Heating Degree Days 40    
Moisture  
Dew Point 17 °F    
Average Humidity 70    
Maximum Humidity 92    
Minimum Humidity 44    
Precipitation  
Precipitation 0.00 in - - ()
Sea Level Pressure  
Sea Level Pressure 29.84 in    
Wind  
Wind Speed 4 mph (NNW)    
Max Wind Speed 13 mph    
Max Gust Speed 18 mph    
Averages and records for this station are not official NWS values.
T = Trace of Precipitation, MM = Missing Value Source: NWS Daily Summary

Daily Weather History Graph

Daily Weather History Graph

Search for Another Location

Airport or City:

Trip Planner

Search our weather history database for the weather conditions in past years. The results will help you decide how hot, cold, wet, or windy it might be!

Date:

Astronomy

Feb. 14, 2013 Rise Set
Actual Time 6:41 AM EST 5:04 PM EST
Civil Twilight 6:10 AM EST 5:34 PM EST
Nautical Twilight 5:36 AM EST 6:09 PM EST
Astronomical Twilight 5:01 AM EST 6:43 PM EST
Moon 8:25 AM EST (2/14) 10:22 PM EST (2/14)
Length of Visible Light 11h 24m
Length of Day
10h 23m
Waxing Crescent, 21% of the Moon is Illuminated
Feb 14
Waxing Crescent
Feb 17
First Quarter
Feb 25
Full
Mar 4
Last Quarter
Mar 11
New

Hourly Weather History & Observations

Time (EST) Temp. Windchill Dew Point Humidity Pressure Visibility Wind Dir Wind Speed Gust Speed Precip Events Conditions
12:56 AM 23.0 °F 15.8 °F 18.0 °F 81% 29.73 in - NNW 5.8 mph - N/A   Unknown
1:56 AM 23.0 °F 17.0 °F 18.0 °F 81% 29.73 in - NNW 4.6 mph - N/A   Unknown
2:56 AM 21.9 °F - 18.0 °F 85% 29.73 in - Calm Calm - N/A   Unknown
3:56 AM 19.9 °F - 17.1 °F 89% 29.77 in - Calm Calm - N/A   Unknown
4:56 AM 21.0 °F 14.6 °F 18.0 °F 88% 29.75 in - NW 4.6 mph - N/A   Unknown
5:56 AM 19.9 °F 13.4 °F 17.1 °F 89% 29.76 in - NNW 4.6 mph - N/A   Unknown
6:56 AM 19.0 °F 13.9 °F 17.1 °F 92% 29.79 in - North 3.5 mph - N/A   Unknown
7:56 AM 19.0 °F - 16.0 °F 88% 29.81 in - Calm Calm - N/A   Unknown
8:56 AM 23.0 °F 18.4 °F 18.0 °F 81% 29.81 in - NNW 3.5 mph - N/A   Unknown
9:56 AM 25.0 °F 18.1 °F 18.0 °F 75% 29.82 in - Variable 5.8 mph - N/A   Unknown
10:56 AM 28.9 °F 20.4 °F 15.1 °F 56% 29.83 in - NNW 9.2 mph - N/A   Unknown
11:56 AM 30.9 °F 21.2 °F 12.0 °F 46% 29.82 in - NNW 12.7 mph 18.4 mph N/A   Unknown
12:56 PM 32.0 °F 24.2 °F 12.0 °F 44% 29.81 in - North 9.2 mph 18.4 mph N/A   Unknown
1:56 PM 32.0 °F 24.2 °F 12.9 °F 45% 29.83 in - NW 9.2 mph - N/A   Unknown
2:56 PM 30.0 °F 20.5 °F 14.0 °F 51% 29.84 in - NNW 11.5 mph - N/A   Unknown
3:56 PM 30.0 °F 23.2 °F 16.0 °F 56% 29.87 in - North 6.9 mph - N/A   Unknown
4:56 PM 28.9 °F 22.8 °F 16.0 °F 58% 29.88 in - North 5.8 mph - N/A   Unknown
5:56 PM 28.9 °F 25.2 °F 17.1 °F 61% 29.91 in - NNW 3.5 mph - N/A   Unknown
6:56 PM 28.0 °F - 19.0 °F 69% 29.94 in - Calm Calm - N/A   Unknown
7:56 PM 28.0 °F - 17.1 °F 63% 29.94 in - Calm Calm - N/A   Unknown
8:56 PM 27.0 °F - 18.0 °F 69% 29.95 in - Calm Calm - N/A   Unknown
9:56 PM 27.0 °F - 18.0 °F 69% 29.94 in - Calm Calm - N/A   Unknown
10:56 PM 26.1 °F - 18.0 °F 71% 29.94 in - Calm Calm - N/A   Unknown
11:56 PM 23.0 °F - 17.1 °F 78% 29.94 in - Calm Calm - N/A   Unknown